TECHNOSAT (42829 NORAD) Tracking and Keplerian Element Data

This shows tracking and keplerian element data for the satellite.

Feedback or suggestion? Click here.




ElementValue
Catalog42829
NameTECHNOSAT
Epoch Orbit28324
Epoch Day270.09323831
Epoch Year2022
RAAN118.2596
Inclination97.4098
Eccentricity0.0014832
Argument of Perigee32.902
Mean Anonmoly327.312
Mean Motion14.9207176
Decay Rate9.97E-06
L11 42829U 17042E 22270.09323831 .00000997 00000+0 10312-3 0 9995
L22 42829 97.4098 118.2596 0014832 32.9020 327.3120 14.92071760283244

Live tracking and technical data element details for TECHNOSAT (NORAD 42829). TECHNOSAT can be tracked NOW for your location showing map with azimuth and elevation plus other details from your city location.

Track the satellite on the map from your city or location and see movement details for azimuth, elevation, latitude, longitude, range, height, and movement on the map or in text.







IsCatalogInMostPopularTable: catalog: 42829, numindb: 783
Update: records affected: 1



GetName: 42829 TECHNOSAT

Hit Count: updated at: Wed, 28 Sep 2022 22:53:46 GMT